| time (UTC) | temp F | wind direction | speed MPH | gust MPH | rain 1hr in | rain 24hr in | rain mn in | humidity % | barometer mb |
| 20260904210028 | 83 | 260 | 5.0 | 21.0 | 0.00 | 0.00 | 0.00 | 17 | 1001.3 |
| 20260904204525 | 82 | 217 | 4.0 | 14.0 | 0.00 | 0.00 | 0.00 | 17 | 1001.3 |
| 20260904203023 | 82 | 316 | 1.0 | 15.0 | 0.00 | 0.00 | 0.00 | 19 | 1001.6 |
| 20260904201521 | 81 | 336 | 5.0 | 17.0 | 0.00 | 0.00 | 0.00 | 20 | 1001.8 |
| 20260904200027 | 80 | 342 | 6.0 | 13.0 | 0.00 | 0.00 | 0.00 | 20 | 1001.9 |
| 20260904194516 | 79 | 356 | 8.0 | 16.0 | 0.00 | 0.00 | 0.00 | 21 | 1002.0 |
| 20260904193015 | 79 | 264 | 9.0 | 14.0 | 0.00 | 0.00 | 0.00 | 21 | 1002.1 |
| 20260904191518 | 78 | 18 | 15.0 | 23.0 | 0.00 | 0.00 | 0.00 | 22 | 1002.1 |
| 20260904190013 | 79 | 347 | 7.0 | 14.0 | 0.00 | 0.00 | 0.00 | 22 | 1002.6 |
| 20260904184518 | 78 | 335 | 9.0 | 18.0 | 0.00 | 0.00 | 0.00 | 23 | 1002.8 |
| 20260904183009 | 77 | 10 | 10.0 | 18.0 | 0.00 | 0.00 | 0.00 | 24 | 1003.1 |
| 20260904181506 | 77 | 228 | 7.0 | 16.0 | 0.00 | 0.00 | 0.00 | 25 | 1003.2 |
| 20260904180005 | 76 | 281 | 6.0 | 18.0 | 0.00 | 0.00 | 0.00 | 27 | 1003.4 |
| 20260904174504 | 76 | 331 | 8.0 | 15.0 | 0.00 | 0.00 | 0.00 | 27 | 1003.4 |
| 20260904173003 | 76 | 280 | 9.0 | 16.0 | 0.00 | 0.00 | 0.00 | 27 | 1003.6 |
| 20260904171601 | 75 | 109 | 4.0 | 19.0 | 0.00 | 0.00 | 0.00 | 27 | 1003.5 |
| 20260904170059 | 75 | 345 | 8.0 | 15.0 | 0.00 | 0.00 | 0.00 | 26 | 1003.6 |
| 20260904164604 | 75 | 18 | 9.0 | 18.0 | 0.00 | 0.00 | 0.00 | 26 | 1003.7 |
| 20260904163101 | 74 | 335 | 8.0 | 14.0 | 0.00 | 0.00 | 0.00 | 26 | 1003.6 |
| 20260904161554 | 74 | 44 | 6.0 | 16.0 | 0.00 | 0.00 | 0.00 | 27 | 1003.5 |
| 20260904160052 | 74 | 356 | 9.0 | 17.0 | 0.00 | 0.00 | 0.00 | 25 | 1003.5 |
| 20260904154550 | 73 | 316 | 1.0 | 15.0 | 0.00 | 0.00 | 0.00 | 25 | 1003.6 |
| 20260904153059 | 73 | 40 | 6.0 | 12.0 | 0.00 | 0.00 | 0.00 | 24 | 1003.6 |
| 20260904151548 | 72 | 320 | 6.0 | 11.0 | 0.00 | 0.00 | 0.00 | 23 | 1003.5 |
| 20260904150048 | 72 | 339 | 6.0 | 13.0 | 0.00 | 0.00 | 0.00 | 21 | 1003.7 |
| 20260904144546 | 72 | 24 | 5.0 | 12.0 | 0.00 | 0.00 | 0.00 | 22 | 1003.6 |
| 20260904143045 | 72 | 61 | 4.0 | 10.0 | 0.00 | 0.00 | 0.00 | 23 | 1003.5 |
| 20260904141604 | 71 | 308 | 4.0 | 18.0 | 0.00 | 0.00 | 0.00 | 23 | 1003.5 |
| 20260904140044 | 71 | 317 | 7.0 | 15.0 | 0.00 | 0.00 | 0.00 | 23 | 1003.5 |
| 20260904134543 | 71 | 12 | 4.0 | 10.0 | 0.00 | 0.00 | 0.00 | 24 | 1003.4 |
| 20260904133043 | 70 | 207 | 5.0 | 11.0 | 0.00 | 0.00 | 0.00 | 25 | 1003.3 |
| 20260904131554 | 70 | 205 | 5.0 | 21.0 | 0.00 | 0.00 | 0.00 | 22 | 1003.2 |
| 20260904130038 | 70 | 226 | 4.0 | 20.0 | 0.00 | 0.00 | 0.00 | 22 | 1002.9 |
| 20260904124542 | 70 | 335 | 3.0 | 16.0 | 0.00 | 0.00 | 0.00 | 22 | 1002.6 |
| 20260904123033 | 70 | 241 | 4.0 | 15.0 | 0.00 | 0.00 | 0.00 | 21 | 1002.4 |
| 20260904121529 | 70 | 237 | 6.0 | 12.0 | 0.00 | 0.00 | 0.00 | 21 | 1002.2 |
| 20260904120026 | 70 | 288 | 1.0 | 17.0 | 0.00 | 0.00 | 0.00 | 20 | 1002.3 |
| 20260904114537 | 70 | 233 | 7.0 | 14.0 | 0.00 | 0.00 | 0.00 | 19 | 1002.1 |
| 20260904113023 | 71 | 24 | 5.0 | 16.0 | 0.00 | 0.00 | 0.00 | 18 | 1002.0 |
| 20260904111521 | 71 | 328 | 3.0 | 10.0 | 0.00 | 0.00 | 0.00 | 18 | 1001.9 |
| 20260904110025 | 71 | 339 | 6.0 | 21.0 | 0.00 | 0.00 | 0.00 | 17 | 1001.8 |
| 20260904104518 | 71 | 348 | 7.0 | 17.0 | 0.00 | 0.00 | 0.00 | 17 | 1001.7 |
| 20260904103016 | 71 | 338 | 5.0 | 21.0 | 0.00 | 0.00 | 0.00 | 17 | 1001.5 |
| 20260904101518 | 72 | 293 | 2.0 | 19.0 | 0.00 | 0.00 | 0.00 | 16 | 1001.2 |
| 20260904100013 | 71 | 304 | 3.0 | 13.0 | 0.00 | 0.00 | 0.00 | 15 | 1001.2 |
| 20260904094514 | 72 | 302 | 3.0 | 12.0 | 0.00 | 0.00 | 0.00 | 15 | 1001.1 |
| 20260904093012 | 72 | 316 | 4.0 | 11.0 | 0.00 | 0.00 | 0.00 | 14 | 1001.2 |
| 20260904091511 | 72 | 252 | 6.0 | 22.0 | 0.00 | 0.00 | 0.00 | 14 | 1000.9 |
| 20260904090010 | 72 | 246 | 2.0 | 10.0 | 0.00 | 0.00 | 0.00 | 15 | 1000.9 |
| 20260904084510 | 72 | 255 | 2.0 | 14.0 | 0.00 | 0.00 | 0.00 | 14 | 1001.1 |
| 20260904083008 | 72 | 239 | 3.0 | 14.0 | 0.00 | 0.00 | 0.00 | 15 | 1000.8 |
| 20260904081508 | 72 | 294 | 5.0 | 15.0 | 0.00 | 0.00 | 0.00 | 15 | 1000.6 |
| 20260904080006 | 72 | 46 | 6.0 | 11.0 | 0.00 | 0.00 | 0.00 | 17 | 1000.8 |
| 20260904074508 | 71 | 331 | 6.0 | 15.0 | 0.00 | 0.00 | 0.00 | 18 | 1000.8 |
| 20260904073003 | 71 | 24 | 9.0 | 15.0 | 0.00 | 0.00 | 0.00 | 20 | 1000.4 |
| 20260904071506 | 70 | 23 | 9.0 | 15.0 | 0.00 | 0.00 | 0.00 | 22 | 1000.4 |
| 20260904070059 | 70 | 85 | 4.0 | 10.0 | 0.00 | 0.00 | 0.00 | 23 | 1000.5 |
| 20260904064555 | 72 | 352 | 8.0 | 13.0 | 0.00 | 0.00 | 0.00 | 21 | 1000.3 |
| 20260904063107 | 72 | 22 | 10.0 | 17.0 | 0.00 | 0.00 | 0.00 | 21 | 1000.2 |
| 20260904061559 | 72 | 245 | 8.0 | 14.0 | 0.00 | 0.00 | 0.00 | 20 | 1000.1 |
| 20260904060107 | 73 | 34 | 8.0 | 16.0 | 0.00 | 0.00 | 0.00 | 19 | 1000.0 |
| 20260904054546 | 74 | 294 | 5.0 | 15.0 | 0.00 | 0.00 | 0.00 | 18 | 1000.1 |
| 20260904053045 | 74 | 312 | 10.0 | 15.0 | 0.00 | 0.00 | 0.00 | 17 | 1000.1 |
| 20260904051547 | 75 | 339 | 7.0 | 14.0 | 0.00 | 0.00 | 0.00 | 17 | 1000.1 |
| 20260904050044 | 75 | 1 | 3.0 | 11.0 | 0.00 | 0.00 | 0.00 | 17 | 1000.0 |
| 20260904044549 | 75 | 336 | 4.0 | 12.0 | 0.00 | 0.00 | 0.00 | 17 | 1000.1 |
| 20260904043044 | 76 | 25 | 2.0 | 12.0 | 0.00 | 0.00 | 0.00 | 17 | 1000.1 |
| 20260904041541 | 76 | 259 | 4.0 | 12.0 | 0.00 | 0.00 | 0.00 | 16 | 999.9 |
| 20260904040042 | 76 | 263 | 5.0 | 15.0 | 0.00 | 0.00 | 0.00 | 17 | 999.9 |
| 20260904034556 | 77 | 308 | 5.0 | 22.0 | 0.00 | 0.00 | 0.00 | 16 | 999.9 |
| 20260904033041 | 76 | 41 | 6.0 | 12.0 | 0.00 | 0.00 | 0.00 | 17 | 999.7 |
| 20260904031539 | 76 | 84 | 6.0 | 14.0 | 0.00 | 0.00 | 0.00 | 19 | 999.7 |
| 20260904030039 | 77 | 1 | 1.0 | 14.0 | 0.00 | 0.00 | 0.00 | 14 | 999.8 |
| 20260904024541 | 78 | 204 | 8.0 | 13.0 | 0.00 | 0.00 | 0.00 | 14 | 999.5 |
| 20260904023037 | 78 | 242 | 5.0 | 16.0 | 0.00 | 0.00 | 0.00 | 14 | 999.4 |
| 20260904021537 | 79 | 232 | 10.0 | 24.0 | 0.00 | 0.00 | 0.00 | 13 | 999.4 |
| 20260904020040 | 79 | 229 | 8.0 | 16.0 | 0.00 | 0.00 | 0.00 | 13 | 999.4 |
| 20260904014539 | 80 | 141 | 9.0 | 23.0 | 0.00 | 0.00 | 0.00 | 14 | 999.5 |
| 20260904013035 | 81 | 195 | 7.0 | 15.0 | 0.00 | 0.00 | 0.00 | 14 | 999.4 |
| 20260904011538 | 81 | 237 | 8.0 | 21.0 | 0.00 | 0.00 | 0.00 | 14 | 999.5 |
| 20260904010044 | 81 | 235 | 12.0 | 25.0 | 0.00 | 0.00 | 0.00 | 14 | 999.5 |
| 20260904004532 | 81 | 152 | 12.0 | 26.0 | 0.00 | 0.00 | 0.00 | 14 | 999.6 |
| 20260904001530 | 82 | 18 | 5.0 | 12.0 | 0.00 | 0.00 | 0.00 | 13 | 999.5 |
| 20260904000029 | 83 | 314 | 3.0 | 12.0 | 0.00 | 0.00 | 0.00 | 13 | 999.6 |
| 20260903234534 | 83 | 257 | 7.0 | 11.0 | 0.00 | 0.00 | 0.00 | 13 | 999.7 |
| 20260903233024 | 82 | 5 | 8.0 | 17.0 | 0.00 | 0.00 | 0.00 | 13 | 1000.0 |
| 20260903231524 | 82 | 331 | 6.0 | 14.0 | 0.00 | 0.00 | 0.00 | 13 | 1000.2 |
| 20260903230024 | 81 | 12 | 3.0 | 21.0 | 0.00 | 0.00 | 0.00 | 13 | 1000.2 |
| 20260903224526 | 81 | 335 | 6.0 | 14.0 | 0.00 | 0.00 | 0.00 | 14 | 1000.4 |
| 20260903223019 | 81 | 334 | 10.0 | 15.0 | 0.00 | 0.00 | 0.00 | 14 | 1000.7 |
| 20260903221516 | 81 | 53 | 8.0 | 18.0 | 0.00 | 0.00 | 0.00 | 13 | 1001.0 |
| 20260903220122 | 80 | 25 | 8.0 | 13.0 | 0.00 | 0.00 | 0.00 | 13 | 1000.9 |
| 20260903214512 | 80 | 329 | 6.0 | 13.0 | 0.00 | 0.00 | 0.00 | 14 | 1001.4 |
| 20260903213013 | 80 | 290 | 5.0 | 19.0 | 0.00 | 0.00 | 0.00 | 15 | 1001.3 |
| 20260903211517 | 79 | 360 | 3.0 | 19.0 | 0.00 | 0.00 | 0.00 | 15 | 1001.5 |